Printer-friendly version

IAU Minor Planet Center

Minor Planet Center

MPEC 2003-S89 : 2003 SB220

The following Minor Planet Electronic Circular may be linked-to from your own Web pages, but must not otherwise be redistributed electronically.

A form allowing access to any MPEC is at the bottom of this page.


Read MPEC 2003-S88 Read MPEC 2003-S90


M.P.E.C. 2003-S89                                Issued 2003 Sept. 30, 12:13 UT

     The Minor Planet Electronic Circulars contain information on unusual
         minor planets and routine data on comets.  They are published
   on behalf of Commission 20 of the International Astronomical Union by the
          Minor Planet Center, Smithsonian Astrophysical Observatory,
                          Cambridge, MA 02138, U.S.A.

         Supported in part by the Steven and Michele Kirsch Foundation
             Prepared using the Tamkin Foundation Computer Network

                              MPC@CFA.HARVARD.EDU
          URL http://cfa-www.harvard.edu/iau/mpc.html  ISSN 1523-6714

                                  2003 SB220

Observations:
     K03SM0B* C2003 09 28.42757 07 04 37.49 +19 14 31.8          18.5        704
     K03SM0B  C2003 09 28.44041 07 04 39.80 +19 14 30.8          18.4        704
     K03SM0B  C2003 09 28.45370 07 04 42.15 +19 14 29.0          18.5        704
     K03SM0B  C2003 09 28.46657 07 04 44.51 +19 14 28.4          18.5        704
     K03SM0B  C2003 09 28.47943 07 04 46.81 +19 14 27.0          18.6        704
     K03SM0B  C2003 09 29.12524 07 06 43.97 +19 13 22.9          18.3 R      J95
     K03SM0B  C2003 09 29.12995 07 06 44.80 +19 13 21.9          17.6 R      J95
     K03SM0B  C2003 09 29.13501 07 06 45.74 +19 13 21.9          18.5 R      J95
     K03SM0B  C2003 09 29.14737 07 06 47.89 +19 13 21.0                      118
     K03SM0B  C2003 09 29.15131 07 06 48.70 +19 13 20.0                      118
     K03SM0B  C2003 09 29.36650 07 07 27.48 +19 13 00.6          18.1 R      932
     K03SM0B  C2003 09 29.36966 07 07 28.04 +19 13 00.0          18.5 R      932
     K03SM0B  C2003 09 29.37122 07 07 28.35 +19 13 00.0          18.5 R      932
     K03SM0B  C2003 09 29.39422 07 07 32.63 +19 12 57.1          18.5 R      854
     K03SM0B  C2003 09 29.39602 07 07 33.09 +19 12 55.9          18.4 R      854
     K03SM0B  C2003 09 29.40164 07 07 34.01 +19 12 57.6          18.4 R      854
     K03SM0B  C2003 09 29.40835 07 07 35.15 +19 12 57.1          18.4        704
     K03SM0B  C2003 09 29.42064 07 07 37.31 +19 12 56.0          18.9        704
     K03SM0B  C2003 09 29.43301 07 07 39.56 +19 12 55.1          18.4        704
     K03SM0B  C2003 09 29.43634 07 07 40.16 +19 12 54.5          18.7        704
     K03SM0B  C2003 09 29.44516 07 07 41.72 +19 12 54.4          18.6        704
     K03SM0B  C2003 09 29.44955 07 07 42.51 +19 12 53.6          18.5        704
     K03SM0B  C2003 09 29.45752 07 07 43.93 +19 12 51.4          18.6        704
     K03SM0B  C2003 09 29.46319 07 07 44.91 +19 12 51.7          18.4        704
     K03SM0B  C2003 09 29.47617 07 07 47.23 +19 12 50.7          18.7        704
     K03SM0B 5C2003 09 29.53588 07 07 57.94 +19 12 44.7          18.0 R      673
     K03SM0B 5C2003 09 29.53704 07 07 58.17 +19 12 44.6                      673
     K03SM0B 5C2003 09 29.53819 07 07 58.33 +19 12 44.5                      673
     K03SM0B 5C2003 09 29.53939 07 07 58.56 +19 12 44.4                      673
     K03SM0B 5C2003 09 29.54063 07 07 58.78 +19 12 44.3                      673
     K03SM0B 5C2003 09 29.54179 07 07 58.99 +19 12 44.1                      673
     K03SM0B  C2003 09 30.12372 07 09 43.63 +19 11 42.1          18.3 R      132
     K03SM0B  C2003 09 30.13382 07 09 45.44 +19 11 41.4          18.0 R      132
     K03SM0B  C2003 09 30.14393 07 09 47.20 +19 11 40.4          18.0 R      132
     K03SM0B  C2003 09 30.40147 07 10 33.46 +19 11 13.7          18.3 R      G90
     K03SM0B  C2003 09 30.40244 07 10 33.62 +19 11 13.5          18.6 R      G90
     K03SM0B  C2003 09 30.41023 07 10 34.96 +19 11 12.9          18.1 R      G90

Observer details:
118 Modra.  Observer S. Gajdos.  0.6-m f/5.5 reflector + CCD.
132 Bedoin.  Observer P. Antonini.  0.30-m f/3.3 Schmidt-Cassegrain + CCD.
673 Table Mountain Observatory, Wrightwood.  Observer J. Young.  0.6-m
    reflector + CCD.
704 Lincoln Laboratory ETS, New Mexico.  Observers M. Blythe, F. Shelly,
    M. Bezpalko, R. Huber, L. Manguso, D. Torres, R. Kracke, M. McCleary,
    H. Stange.  Measurers J. Stuart, R. Sayer, J. Evans, J. Kommers.  1.0-m
    f/2.15 reflector + CCD.
854 Sabino Canyon Observatory, Tucson.  Observer J. E. McGaha.  0.30-m f/10.0
    Schmidt-Cassegrain + CCD.
932 John J. McCarthy Obs., New Milford.  Observer M. Robson.  Measurer
    A. Engine.  0.4-m f/6.5 Schmidt-Cassegrain + CCD.
G90 Three Buttes Observatory, Tucson.  Observer G. R. Jones.  0.32-m
    Ritchey-Chretien + CCD.
J95 Great Shefford.  Observer P. Birtwhistle.  0.30-m f/6.3 Schmidt-Cassegrain
    + CCD.

Orbital elements:
2003 SB220
Epoch 2003 Sept. 18.0 TT = JDT 2452900.5                MPC
M   2.12239              (2000.0)            P               Q
n   0.17031376     Peri.  306.55115     +0.76581047     -0.63769408
a   3.2233161      Node    93.22200     +0.61336362     +0.68558642
e   0.5891806      Incl.    4.76566     +0.19318228     +0.35116594
P   5.79           H   16.0           G   0.15
From 37 observations 2003 Sept. 28-30.

Ephemeris:
2003 SB220               a,e,i = 3.22, 0.59, 5                   q = 1.3242
Date    TT    R. A. (2000) Decl.     Delta      r     Elong.  Phase     V
2003 09 28    07 03.32   +19 15.2    1.104    1.349    79.5    46.9    18.6
2003 10 08    07 32.31   +18 54.5    1.084    1.375    82.5    46.1    18.6
2003 10 18    07 58.19   +18 26.3    1.064    1.409    86.2    44.9    18.6
2003 10 28    08 20.61   +17 57.4    1.042    1.451    90.9    43.2    18.6
2003 11 07    08 39.23   +17 34.6    1.018    1.499    96.5    41.1    18.5
2003 11 17    08 53.77   +17 24.0    0.993    1.553   103.2    38.3    18.5
2003 11 27    09 03.85   +17 31.1    0.967    1.610   111.0    34.9    18.4
2003 12 07    09 09.15   +17 59.5    0.945    1.672   120.0    30.7    18.3
2003 12 17    09 09.50   +18 50.3    0.928    1.736   130.3    25.6    18.2
2003 12 27    09 05.00   +20 00.4    0.923    1.802   141.8    19.7    18.1
2004 01 06    08 56.41   +21 21.8    0.935    1.869   154.1    13.3    18.0
2004 01 16    08 45.19   +22 42.8    0.968    1.938   166.7     6.7    17.9
2004 01 26    08 33.26   +23 52.3    1.025    2.008   175.0     2.4    17.8
2004 02 05    08 22.62   +24 42.9    1.108    2.077   165.7     6.7    18.3
2004 02 15    08 14.71   +25 13.0    1.215    2.147   154.2    11.6    18.8
2004 02 25    08 10.19   +25 24.6    1.344    2.217   143.2    15.5    19.2
2004 03 06    08 09.16   +25 21.3    1.491    2.286   133.1    18.5    19.6
2004 03 16    08 11.26   +25 06.2    1.653    2.355   123.7    20.6    20.0
2004 03 26    08 16.00   +24 41.8    1.828    2.424   114.9    21.9    20.3
2004 04 05    08 22.90   +24 09.7    2.011    2.491   106.8    22.6    20.6
2004 04 15    08 31.46   +23 31.2    2.201    2.558    99.0    22.8    20.8
2004 04 25    08 41.31   +22 46.9    2.395    2.625    91.7    22.5    21.1
2004 05 05    08 52.13   +21 57.3    2.590    2.690    84.6    21.9    21.3
2004 05 15    09 03.64   +21 03.1    2.785    2.754    77.8    21.0    21.5
2004 05 25    09 15.66   +20 04.7    2.977    2.818    71.2    19.9    21.6
2004 06 04    09 28.01   +19 02.4    3.164    2.881    64.7    18.6    21.8

Timothy B. Spahr             (C) Copyright 2003 MPC           M.P.E.C. 2003-S89

Read MPEC 2003-S88 Read MPEC 2003-S90


MPEC number:

Enter an
MPEC number in one of the following forms:
  • 1997-B01 (the full form)
  • J97B01 (the packed version of the full form)
  • B01 (the abbreviated form)

Valid HTML 4.01!